Hourly Data Report for October 03, 2017

All times are specified in Local Standard Time (LST). Add 1 hour to adjust for Daylight Saving Time where and when it is observed.

SYDNEY A
NOVA SCOTIA

46°09'41.000" N
60°02'53.000" W
61.90 m
8205701
71707
YQY

Download Data

Hourly Data (October 2017)
Hourly Data Report for October 3, 2017
Temp Definition
°C
Dew Point Temp Definition
°C
Rel Hum Definition
%
Wind Dir Definition
10's deg

Wind Spd Definition
km/h
Visibility Definition
km
Stn Press Definition
kPa
Hmdx Definition


Wind Chill Definition


Weather Definition


TIME
00:00 Legend Double Dagger 9.1 2.5 63 2 36 24.1 102.10     LegendNANA
01:00 Legend Double Dagger 8.8 2.0 62 2 26 24.1 102.16     LegendNANA
02:00 Legend Double Dagger 9.3 2.7 63 2 30 24.1 102.19     Cloudy
03:00 Legend Double Dagger 8.4 4.9 78 1 30 24.1 102.24     LegendNANA
04:00 Legend Double Dagger 8.0 5.7 85 1 25 24.1 102.31     Rain Showers
05:00 Legend Double Dagger 8.5 4.4 75 36 22 22.5 102.37     Rain Showers
06:00 Legend Double Dagger 9.2 2.7 64 35 32 24.1 102.45     LegendNANA
07:00 Legend Double Dagger 9.4 1.7 59 36 32 24.1 102.50     LegendNANA
08:00 Legend Double Dagger 9.8 1.6 56 36 28 24.1 102.56     Mostly Cloudy
09:00 Legend Double Dagger 10.4 2.3 57 36 33 24.1 102.59     LegendNANA
10:00 Legend Double Dagger 11.2 2.6 55 35 27 24.1 102.59     LegendNANA
11:00 Legend Double Dagger 11.0 4.1 62 35 26 24.1 102.55     Mostly Cloudy
12:00 Legend Double Dagger 11.5 3.0 56 34 33 24.1 102.57     LegendNANA
13:00 Legend Double Dagger 12.1 3.6 56 35 27 24.1 102.48     LegendNANA
14:00 Legend Double Dagger 12.0 3.5 56 35 24 24.1 102.47     Mostly Cloudy
15:00 Legend Double Dagger 12.2 4.7 60 35 11 24.1 102.41     LegendNANA
16:00 Legend Double Dagger 13.0 5.5 60 36 4 24.1 102.31     LegendNANA
17:00 Legend Double Dagger 10.5 4.3 65 32 13 24.1 102.31     Mainly Clear
18:00 Legend Double Dagger 8.3 4.3 76 28 8 24.1 102.31     LegendNANA
19:00 Legend Double Dagger 7.6 3.8 77 30 15 24.1 102.36     LegendNANA
20:00 Legend Double Dagger 6.9 3.9 81 28 12 24.1 102.33     Mostly Cloudy
21:00 Legend Double Dagger 6.2 3.8 85 28 10 24.1 102.28     LegendNANA
22:00 Legend Double Dagger 4.9 3.5 90 22 8 24.1 102.22     LegendNANA
23:00 Legend Double Dagger 3.6 2.6 93 0 1 48.3 102.14     Mainly Clear

Notes on Data Quality.

Legend

  • E = Estimated
  • M = Missing
  • NA = Not Available
  • ‡ = Partner data that is not subject to review by the National Climate Archives
Date modified: